Location: Black Forest
(43.4794°N, 75.0081°W)
Time: 22:57:25
(UTC-04:00)

ISS - Visible Passes

Search period start: 25 October 2014 00:00
Search period end: 03 November 2014 23:00
Orbit: 412 x 416 km, 51.6° (Epoch: 25 October)

Date Brightness Start Highest point End Pass type
(mag) Time Alt. Az. Time Alt. Az. Time Alt. Az.
25 Oct -3.3 18:50:45 10° WNW 18:54:06 88° NNE 18:57:21 11° ESE visible
25 Oct -0.3 20:28:50 10° WSW 20:30:15 13° SW 20:30:15 13° SW visible
26 Oct -0.9 19:38:43 10° W 19:41:19 21° SW 19:43:42 11° S visible
27 Oct -1.7 18:49:07 10° WNW 18:52:12 36° SW 18:55:17 10° SSE visible
29 Oct -0.2 18:48:04 10° W 18:49:58 14° SW 18:51:52 10° SSW visible
